Subject,Start Date,Start Time,End Date,End Time,All Day Event,Description,Location,Private
Sehri,12/03/2024,4:49,,,,Ramadhan 1 for Chadwell St Mary Grays,,
Sehri,13/03/2024,4:47,,,,Ramadhan 2 for Chadwell St Mary Grays,,
Sehri,14/03/2024,4:44,,,,Ramadhan 3 for Chadwell St Mary Grays,,
Sehri,15/03/2024,4:42,,,,Ramadhan 4 for Chadwell St Mary Grays,,
Sehri,16/03/2024,4:40,,,,Ramadhan 5 for Chadwell St Mary Grays,,
Sehri,17/03/2024,4:38,,,,Ramadhan 6 for Chadwell St Mary Grays,,
Sehri,18/03/2024,4:35,,,,Ramadhan 7 for Chadwell St Mary Grays,,
Sehri,19/03/2024,4:33,,,,Ramadhan 8 for Chadwell St Mary Grays,,
Sehri,20/03/2024,4:31,,,,Ramadhan 9 for Chadwell St Mary Grays,,
Sehri,21/03/2024,4:28,,,,Ramadhan 10 for Chadwell St Mary Grays,,
Sehri,22/03/2024,4:26,,,,Ramadhan 11 for Chadwell St Mary Grays,,
Sehri,23/03/2024,4:24,,,,Ramadhan 12 for Chadwell St Mary Grays,,
Sehri,24/03/2024,4:22,,,,Ramadhan 13 for Chadwell St Mary Grays,,
Sehri,25/03/2024,4:19,,,,Ramadhan 14 for Chadwell St Mary Grays,,
Sehri,26/03/2024,4:17,,,,Ramadhan 15 for Chadwell St Mary Grays,,
Sehri,27/03/2024,4:15,,,,Ramadhan 16 for Chadwell St Mary Grays,,
Sehri,28/03/2024,4:12,,,,Ramadhan 17 for Chadwell St Mary Grays,,
Sehri,29/03/2024,4:10,,,,Ramadhan 18 for Chadwell St Mary Grays,,
Sehri,30/03/2024,4:08,,,,Ramadhan 19 for Chadwell St Mary Grays,,
Sehri,31/03/2024,5:06,,,,Ramadhan 20 for Chadwell St Mary Grays,,
Sehri,01/04/2024,5:03,,,,Ramadhan 21 for Chadwell St Mary Grays,,
Sehri,02/04/2024,5:01,,,,Ramadhan 22 for Chadwell St Mary Grays,,
Sehri,03/04/2024,4:59,,,,Ramadhan 23 for Chadwell St Mary Grays,,
Sehri,04/04/2024,4:57,,,,Ramadhan 24 for Chadwell St Mary Grays,,
Sehri,05/04/2024,4:54,,,,Ramadhan 25 for Chadwell St Mary Grays,,
Sehri,06/04/2024,4:52,,,,Ramadhan 26 for Chadwell St Mary Grays,,
Sehri,07/04/2024,4:50,,,,Ramadhan 27 for Chadwell St Mary Grays,,
Sehri,08/04/2024,4:48,,,,Ramadhan 28 for Chadwell St Mary Grays,,
Sehri,09/04/2024,4:46,,,,Ramadhan 29 for Chadwell St Mary Grays,,
Iftari,12/03/2024,17:58,,,,Ramadhan 1 for Chadwell St Mary Grays,,
Iftari,13/03/2024,18:00,,,,Ramadhan 2 for Chadwell St Mary Grays,,
Iftari,14/03/2024,18:02,,,,Ramadhan 3 for Chadwell St Mary Grays,,
Iftari,15/03/2024,18:03,,,,Ramadhan 4 for Chadwell St Mary Grays,,
Iftari,16/03/2024,18:05,,,,Ramadhan 5 for Chadwell St Mary Grays,,
Iftari,17/03/2024,18:07,,,,Ramadhan 6 for Chadwell St Mary Grays,,
Iftari,18/03/2024,18:09,,,,Ramadhan 7 for Chadwell St Mary Grays,,
Iftari,19/03/2024,18:10,,,,Ramadhan 8 for Chadwell St Mary Grays,,
Iftari,20/03/2024,18:12,,,,Ramadhan 9 for Chadwell St Mary Grays,,
Iftari,21/03/2024,18:14,,,,Ramadhan 10 for Chadwell St Mary Grays,,
Iftari,22/03/2024,18:15,,,,Ramadhan 11 for Chadwell St Mary Grays,,
Iftari,23/03/2024,18:17,,,,Ramadhan 12 for Chadwell St Mary Grays,,
Iftari,24/03/2024,18:19,,,,Ramadhan 13 for Chadwell St Mary Grays,,
Iftari,25/03/2024,18:20,,,,Ramadhan 14 for Chadwell St Mary Grays,,
Iftari,26/03/2024,18:22,,,,Ramadhan 15 for Chadwell St Mary Grays,,
Iftari,27/03/2024,18:24,,,,Ramadhan 16 for Chadwell St Mary Grays,,
Iftari,28/03/2024,18:25,,,,Ramadhan 17 for Chadwell St Mary Grays,,
Iftari,29/03/2024,18:27,,,,Ramadhan 18 for Chadwell St Mary Grays,,
Iftari,30/03/2024,18:29,,,,Ramadhan 19 for Chadwell St Mary Grays,,
Iftari,31/03/2024,19:30,,,,Ramadhan 20 for Chadwell St Mary Grays,,
Iftari,01/04/2024,19:32,,,,Ramadhan 21 for Chadwell St Mary Grays,,
Iftari,02/04/2024,19:34,,,,Ramadhan 22 for Chadwell St Mary Grays,,
Iftari,03/04/2024,19:35,,,,Ramadhan 23 for Chadwell St Mary Grays,,
Iftari,04/04/2024,19:37,,,,Ramadhan 24 for Chadwell St Mary Grays,,
Iftari,05/04/2024,19:39,,,,Ramadhan 25 for Chadwell St Mary Grays,,
Iftari,06/04/2024,19:40,,,,Ramadhan 26 for Chadwell St Mary Grays,,
Iftari,07/04/2024,19:42,,,,Ramadhan 27 for Chadwell St Mary Grays,,
Iftari,08/04/2024,19:44,,,,Ramadhan 28 for Chadwell St Mary Grays,,
Iftari,09/04/2024,19:45,,,,Ramadhan 29 for Chadwell St Mary Grays,,
